Regional Weather Roundup
Issued by NWS

Home | Current Version | Previous Version | Text Only | Print | Product List | Glossary On
Versions: 1 2 3 4 5 6 7 8 9 10 11 12 13 14 15 16 17 18 19 20 21 22 23 24 25 26 27 28 29 30 31 32 33 34 35 36 37 38 39 40 41 42 43 44 45 46 47 48 49 50
000
ASUS44 KLIX 192212
RWRLA
LOUISIANA WEATHER ROUNDUP
NATIONAL WEATHER SERVICE NEW ORLEANS LA
400 PM CST SUN NOV 19 2017

NOTE: "FAIR" INDICATES FEW OR NO CLOUDS BELOW 12,000 FEET WITH NO
      SIGNIFICANT WEATHER AND/OR OBSTRUCTIONS TO VISIBILITY.
      SKY/WX - SKY CONDITION AND SIGNIFICANT WEATHER.
      TMP - AIR TEMPERATURE.    DP   - DEWPOINT TEMPERATURE.
      RH  - RELATIVE HUMIDITY.  PRES - PRESSURE.
      HX  - HEAT INDEX.         WCI  - WIND CHILL INDEX.

*  THESE STATIONS ARE NOT NWS OR FAA STATIONS AND ARE NOT UNDER
   NWS QUALITY CONTROL.

LAZ040-048-061>063-065-066-069-192300-
SOUTHEAST LOUISIANA

CITY           SKY/WX    TMP DP  RH WIND       PRES   REMARKS
N.O. INTL ARPT MOSUNNY   63  34  33 N8        30.14R
N.O. LAKEFRONT SUNNY     62  35  36 N18       30.14R
N.O. DOWNTOWN* FAIR      61  32  33 N9G20     30.14R
RESERVE*       FAIR      62  26  25 N9G16     30.15R
SLIDELL        SUNNY     61  31  32 N9        30.13R
BATON ROUGE    SUNNY     61  28  28 NW8       30.16S
BOOTHVILLE     SUNNY     63  39  41 N8G17     30.11S
BELLE CHASSE   MOSUNNY   61  36  39 N10       30.13R
BOGALUSA*      NOT AVBL
GALLIANO*      PTCLDY    60  31  33 N14       30.13R
NEW ROADS*     FAIR      60  29  31 N10G16    30.18S
GONZALES*      FAIR      61  28  29 N12       30.15R
HAMMOND*       SUNNY     59  28  31 N9G16     30.15S
HOUMA*         SUNNY     61  30  31 N9G16     30.13R
PORT FOURCHON* NOT AVBL

$$

LAZ041-044-053-054-192300-
SOUTHWEST LOUISIANA

CITY           SKY/WX    TMP DP  RH WIND       PRES   REMARKS
LAKE CHARLES   SUNNY     63  28  26 N13       30.18F
LAFAYETTE      SUNNY     61  28  28 N15       30.18R
PATTERSON      MOSUNNY   61  31  32 N12       30.16R
SALT POINT       N/A     62  28  27 N9        30.14R
NEW IBERIA     SUNNY     61  27  27 N15       30.17R
CHENAULT AIRPK SUNNY     63  28  27 N12G17    30.19S

$$

LAZ027-028-192300-
CENTRAL LOUISIANA

CITY           SKY/WX    TMP DP  RH WIND       PRES   REMARKS
FORT POLK      MOSUNNY   60  26  27 N9        30.19S
ALEXANDRIA INT SUNNY     61  25  25 N13       30.18F
ALEXANDRIA     SUNNY     61  24  24 VRB5      30.19F

$$

LAZ001-002-192300-
NORTHWEST LOUISIANA

CITY           SKY/WX    TMP DP  RH WIND       PRES   REMARKS
SHREVEPORT     MOSUNNY   61  27  27 N10       30.21F
BARKSDALE AFB  SUNNY     61  27  28 N6        30.21F
DTN SHREVEPORT SUNNY     61  29  29 N6        30.22F

$$

LAZ014-016-192300-
NORTHEAST LOUISIANA

CITY           SKY/WX    TMP DP  RH WIND       PRES   REMARKS
MONROE         SUNNY     59  26  28 NE9       30.22S
TALLULAH       SUNNY     57  28  33 N8        30.20F

$$




USA.gov is the U.S. government's official web portal to all federal, state and local government web resources and services.